When you browse on this site, cookies collect data to enhance your experience and personalize the content and advertising you see.
Visit our Privacy Policy to learn more. By continuing to use the site, you agree to this use of cookies and data.
  • In Österreich
  • Länderverzeichnis
  • Für 7 Tage
  • Wassertemperatur
  • Satellitenkarten
  • Wetterkarte
  • News
  • Widgets
  • user-avatar
    Anmelden

    Stündliche Wetter Novopolock

    Heute, 17 Januar, Donnerstag

    Zeit Temperatur Niederschläge Wind Luftdruck Luftfeuchtigkeit
    00:00 -10°C° 0 mm 3 m/S 739 mmHg 93%
    01:00 -10°C° 0 mm 4 m/S 738 mmHg 93%
    02:00 -9°C° 0 mm 4 m/S 737 mmHg 93%
    03:00 -8°C° 0.3 mm 5 m/S 737 mmHg 93%
    04:00 -6°C° 0.3 mm 5 m/S 736 mmHg 92%
    05:00 -4°C° 0.3 mm 6 m/S 735 mmHg 92%
    06:00 -3°C° 0.3 mm 6 m/S 735 mmHg 92%
    07:00 -2°C° 0.3 mm 6 m/S 734 mmHg 92%
    08:00 -1°C° 0.3 mm 6 m/S 734 mmHg 93%
    09:00 -1°C° 0.2 mm 6 m/S 733 mmHg 93%
    10:00 -1°C° 0.2 mm 6 m/S 733 mmHg 92%
    11:00 -1°C° 0.2 mm 6 m/S 733 mmHg 92%
    12:00 -1°C° 0.5 mm 6 m/S 732 mmHg 91%
    13:00 -1°C° 0.5 mm 7 m/S 732 mmHg 90%
    14:00 -2°C° 0.5 mm 7 m/S 731 mmHg 90%
    15:00 -2°C° 0.4 mm 7 m/S 731 mmHg 89%
    16:00 -2°C° 0.4 mm 7 m/S 731 mmHg 88%
    17:00 -2°C° 0.4 mm 7 m/S 731 mmHg 87%
    18:00 -2°C° 0.1 mm 7 m/S 731 mmHg 88%
    19:00 -1°C° 0.1 mm 7 m/S 732 mmHg 88%
    20:00 -1°C° 0.1 mm 7 m/S 732 mmHg 89%
    21:00 -1°C° 0 mm 7 m/S 732 mmHg 88%
    22:00 -1°C° 0 mm 7 m/S 733 mmHg 88%
    23:00 -1°C° 0 mm 7 m/S 733 mmHg 88%

    Morgen, 18 Januar, Freitag

    Zeit Temperatur Niederschläge Wind Luftdruck Luftfeuchtigkeit
    00:00 -1°C° 0 mm 6 m/S 734 mmHg 88%
    01:00 -2°C° 0 mm 6 m/S 734 mmHg 88%
    02:00 -2°C° 0 mm 6 m/S 735 mmHg 88%
    03:00 -2°C° 0 mm 6 m/S 735 mmHg 88%
    04:00 -1°C° 0 mm 5 m/S 735 mmHg 88%
    05:00 -1°C° 0 mm 5 m/S 736 mmHg 87%
    06:00 -1°C° 0 mm 5 m/S 736 mmHg 89%
    07:00 -1°C° 0 mm 4 m/S 736 mmHg 90%
    08:00 -2°C° 0 mm 4 m/S 736 mmHg 92%
    09:00 -1°C° 0.2 mm 3 m/S 736 mmHg 93%
    10:00 -1°C° 0.2 mm 3 m/S 736 mmHg 94%
    11:00 -1°C° 0.2 mm 2 m/S 736 mmHg 95%
    12:00 -1°C° 1.8 mm 2 m/S 736 mmHg 96%
    13:00 -1°C° 1.8 mm 3 m/S 736 mmHg 96%
    14:00 -2°C° 1.8 mm 3 m/S 736 mmHg 96%
    15:00 -4°C° 0.8 mm 4 m/S 736 mmHg 95%
    16:00 -5°C° 0.8 mm 4 m/S 737 mmHg 94%
    17:00 -8°C° 0.8 mm 5 m/S 737 mmHg 93%
    18:00 -8°C° 0.2 mm 4 m/S 738 mmHg 91%
    19:00 -8°C° 0.2 mm 4 m/S 739 mmHg 89%
    20:00 -9°C° 0.2 mm 4 m/S 740 mmHg 88%
    21:00 -9°C° 0 mm 3 m/S 741 mmHg 89%
    22:00 -9°C° 0 mm 3 m/S 741 mmHg 91%
    23:00 -10°C° 0 mm 3 m/S 742 mmHg 92%

    übermorgen, 19 Januar, Samstag

    Zeit Temperatur Niederschläge Wind Luftdruck Luftfeuchtigkeit
    00:00 -10°C° 0 mm 3 m/S 743 mmHg 92%
    01:00 -11°C° 0 mm 4 m/S 743 mmHg 91%
    02:00 -11°C° 0 mm 4 m/S 744 mmHg 91%
    03:00 -10°C° 0 mm 4 m/S 744 mmHg 91%
    04:00 -10°C° 0 mm 4 m/S 744 mmHg 92%
    05:00 -10°C° 0 mm 4 m/S 744 mmHg 92%
    06:00 -10°C° 0 mm 4 m/S 745 mmHg 92%
    07:00 -11°C° 0 mm 4 m/S 745 mmHg 91%
    08:00 -11°C° 0 mm 4 m/S 746 mmHg 91%
    09:00 -10°C° 0 mm 4 m/S 746 mmHg 91%
    10:00 -9°C° 0 mm 4 m/S 746 mmHg 90%
    11:00 -8°C° 0 mm 5 m/S 747 mmHg 90%
    12:00 -8°C° 0 mm 4 m/S 747 mmHg 88%
    13:00 -7°C° 0 mm 4 m/S 747 mmHg 87%
    14:00 -5°C° 0 mm 4 m/S 747 mmHg 85%
    15:00 -7°C° 0 mm 4 m/S 747 mmHg 86%
    16:00 -7°C° 0 mm 4 m/S 747 mmHg 87%
    17:00 -8°C° 0 mm 4 m/S 747 mmHg 88%
    18:00 -6°C° 0.4 mm 3 m/S 748 mmHg 91%
    19:00 -6°C° 0.4 mm 3 m/S 748 mmHg 94%
    20:00 -6°C° 0.4 mm 3 m/S 748 mmHg 96%
    21:00 -5°C° 0.5 mm 3 m/S 748 mmHg 95%
    22:00 -5°C° 0.5 mm 3 m/S 748 mmHg 94%
    23:00 -4°C° 0.5 mm 4 m/S 748 mmHg 93%

    20 Januar, Sonntag

    Zeit Temperatur Niederschläge Wind Luftdruck Luftfeuchtigkeit
    00:00 -7°C° 0 mm 4 m/S 748 mmHg 93%
    01:00 -7°C° 0 mm 3 m/S 749 mmHg 93%
    02:00 -8°C° 0 mm 3 m/S 749 mmHg 93%
    03:00 -8°C° 0 mm 3 m/S 749 mmHg 93%
    04:00 -9°C° 0 mm 3 m/S 749 mmHg 93%
    05:00 -9°C° 0 mm 3 m/S 749 mmHg 93%
    06:00 -9°C° 0 mm 3 m/S 749 mmHg 93%
    07:00 -9°C° 0 mm 3 m/S 749 mmHg 94%
    08:00 -10°C° 0 mm 3 m/S 749 mmHg 94%
    09:00 -10°C° 0 mm 4 m/S 749 mmHg 94%
    10:00 -9°C° 0 mm 4 m/S 749 mmHg 94%
    11:00 -8°C° 0 mm 4 m/S 749 mmHg 94%
    12:00 -7°C° 0.2 mm 5 m/S 749 mmHg 92%
    13:00 -6°C° 0.2 mm 5 m/S 748 mmHg 91%
    14:00 -5°C° 0.2 mm 5 m/S 748 mmHg 89%
    15:00 -5°C° 0 mm 5 m/S 748 mmHg 90%
    16:00 -4°C° 0 mm 4 m/S 748 mmHg 90%
    17:00 -4°C° 0 mm 4 m/S 748 mmHg 90%
    18:00 -4°C° 0.1 mm 4 m/S 747 mmHg 90%
    19:00 -4°C° 0.1 mm 4 m/S 747 mmHg 90%
    20:00 -5°C° 0.1 mm 4 m/S 747 mmHg 90%
    21:00 -6°C° 0.1 mm 5 m/S 747 mmHg 91%
    22:00 -6°C° 0.1 mm 5 m/S 746 mmHg 92%
    23:00 -7°C° 0.1 mm 5 m/S 746 mmHg 93%

    21 Januar, Montag

    Zeit Temperatur Niederschläge Wind Luftdruck Luftfeuchtigkeit
    00:00 -6°C° 0.5 mm 5 m/S 746 mmHg 92%
    01:00 -6°C° 0.5 mm 5 m/S 746 mmHg 91%
    02:00 -5°C° 0.5 mm 4 m/S 746 mmHg 90%
    03:00 -7°C° 0 mm 4 m/S 746 mmHg 91%
    04:00 -9°C° 0 mm 4 m/S 746 mmHg 91%
    05:00 -11°C° 0 mm 4 m/S 746 mmHg 92%
    06:00 -11°C° 0 mm 4 m/S 747 mmHg 91%
    07:00 -11°C° 0 mm 4 m/S 747 mmHg 90%
    08:00 -12°C° 0 mm 4 m/S 748 mmHg 90%
    09:00 -12°C° 0 mm 4 m/S 749 mmHg 89%
    10:00 -12°C° 0 mm 4 m/S 749 mmHg 88%
    11:00 -12°C° 0 mm 4 m/S 750 mmHg 88%
    12:00 -12°C° 0 mm 4 m/S 750 mmHg 88%
    13:00 -12°C° 0 mm 4 m/S 750 mmHg 87%
    14:00 -12°C° 0 mm 3 m/S 751 mmHg 87%
    15:00 -13°C° 0 mm 3 m/S 751 mmHg 89%
    16:00 -14°C° 0 mm 3 m/S 751 mmHg 91%
    17:00 -15°C° 0 mm 3 m/S 751 mmHg 93%
    18:00 -14°C° 0 mm 3 m/S 751 mmHg 93%
    19:00 -14°C° 0 mm 3 m/S 751 mmHg 94%
    20:00 -14°C° 0 mm 3 m/S 751 mmHg 94%
    21:00 -14°C° 0 mm 3 m/S 750 mmHg 94%
    22:00 -14°C° 0 mm 3 m/S 750 mmHg 94%
    23:00 -13°C° 0 mm 3 m/S 750 mmHg 94%

    22 Januar, Dienstag

    Zeit Temperatur Niederschläge Wind Luftdruck Luftfeuchtigkeit
    00:00 -13°C° 0 mm 3 m/S 750 mmHg 94%
    01:00 -13°C° 0 mm 3 m/S 750 mmHg 93%
    02:00 -14°C° 0 mm 4 m/S 750 mmHg 93%
    03:00 -14°C° 0 mm 4 m/S 750 mmHg 93%
    04:00 -13°C° 0 mm 3 m/S 749 mmHg 92%
    05:00 -13°C° 0 mm 3 m/S 749 mmHg 92%
    06:00 -12°C° 0.3 mm 4 m/S 749 mmHg 92%
    07:00 -11°C° 0.3 mm 4 m/S 749 mmHg 92%
    08:00 -11°C° 0.3 mm 5 m/S 749 mmHg 91%
    09:00 -10°C° 0.2 mm 5 m/S 749 mmHg 92%
    10:00 -8°C° 0.2 mm 5 m/S 749 mmHg 92%
    11:00 -8°C° 0.2 mm 5 m/S 748 mmHg 93%
    12:00 -7°C° 0.3 mm 5 m/S 748 mmHg 93%
    13:00 -6°C° 0.3 mm 5 m/S 748 mmHg 92%
    14:00 -5°C° 0.3 mm 4 m/S 748 mmHg 92%
    15:00 -5°C° 0.4 mm 4 m/S 748 mmHg 93%
    16:00 -5°C° 0.4 mm 3 m/S 748 mmHg 94%
    17:00 -5°C° 0.4 mm 3 m/S 749 mmHg 95%
    18:00 -4°C° 0.4 mm 2 m/S 749 mmHg 95%
    19:00 -5°C° 0.4 mm 2 m/S 749 mmHg 96%
    20:00 -6°C° 0.4 mm 2 m/S 749 mmHg 96%
    21:00 -7°C° 0.1 mm 2 m/S 749 mmHg 96%
    22:00 -9°C° 0.1 mm 2 m/S 749 mmHg 96%
    23:00 -10°C° 0.1 mm 2 m/S 749 mmHg 95%
    Mehr zeigen